Tracking 32941 objects as of 15-Jan-2026
HD Live streaming from Space Station
objects crossing your sky now

THOR ABLESTAR DEB

Track THOR ABLESTAR DEB now!
10-day predictions


NORAD ID: 541
Int'l Code: 1961-015GA
Perigee: 894.8 km
Apogee: 1,002.8 km
Inclination: 67.2 °
Period: 103.9 minutes
Semi major axis: 7319 km
RCS: 0.0369 m2 (small)
Launch date: June 29, 1961
Source: United States (US)
Launch site: AIR FORCE EASTERN TEST RANGE (AFETR)

Note: This is SATELLITE DEBRIS
Your satellite tracking list
Your tracking list is empty




NASA's NSSDC Master Catalog

Two Line Element Set (TLE):
1   541U 61015GA  26015.08902807  .00000215  00000-0  24323-3 0  9996
2   541  67.2185  48.3051 0073760  29.2784 331.2398 13.86294750251100
Source of the keplerian elements: AFSPC